Renton, WA

2:30 PM PDT on April 25, 2018 (GMT -0700)
Renton Municipal

Weather History for KRNT - December, 2013

Change the Weather History Date:

Thursday, December 26, 2013

  Actual Average Record
Temperature  
Mean Temperature 38 °F -  
Max Temperature 43 °F 44 °F 53 °F (2005)
Min Temperature 33 °F 35 °F 28 °F (1996)
Degree Days  
Heating Degree Days 27    
Moisture  
Dew Point 35 °F    
Average Humidity 97    
Maximum Humidity 100    
Minimum Humidity 82    
Precipitation  
Precipitation 0.00 in - - ()
Sea Level Pressure  
Sea Level Pressure 30.33 in    
Wind  
Wind Speed 0 mph (ESE)    
Max Wind Speed 5 mph    
Max Gust Speed -    
Visibility 3 miles    
Events Fog    
Averages and records for this station are not official NWS values.
T = Trace of Precipitation, MM = Missing Value Source: NWS Daily Summary

Daily Weather History Graph

Daily Weather History Graph

Search for Another Location

Airport or City:

Astronomy

Dec. 26, 2013 Rise Set
Actual Time 7:55 AM PST 4:23 PM PST
Civil Twilight 7:19 AM PST 4:59 PM PST
Nautical Twilight 6:40 AM PST 5:38 PM PST
Astronomical Twilight 6:03 AM PST 6:16 PM PST
Moon 1:11 AM PST (12/26) 12:18 PM PST (12/26)
Length of Visible Light 9h 39m
Length of Day
8h 27m
Last Quarter, 37% of the Moon is Illuminated
Dec 26
Last Quarter
Jan 1
New
Jan 7
First Quarter
Jan 15
Full
Jan 23
Last Quarter

Hourly Weather History & Observations

Time (PST) Temp. Windchill Dew Point Humidity Pressure Visibility Wind Dir Wind Speed Gust Speed Precip Events Conditions
12:53 AM 35.1 °F - 34.0 °F 96% 30.42 in 6.0 mi Calm Calm - N/A   Overcast
1:53 AM 35.1 °F - 34.0 °F 96% 30.40 in 6.0 mi Calm Calm - N/A   Overcast
2:50 AM 33.8 °F - 33.8 °F 100% 30.40 in 5.0 mi Calm Calm - N/A   Scattered Clouds
2:53 AM 34.0 °F - 33.1 °F 96% 30.41 in 5.0 mi Calm Calm - N/A   Mostly Cloudy
3:19 AM 33.8 °F - 33.8 °F 100% 30.40 in 4.0 mi Calm Calm - N/A   Mostly Cloudy
3:53 AM 34.0 °F - 33.1 °F 96% 30.42 in 5.0 mi Calm Calm - N/A   Overcast
4:17 AM 35.6 °F - 33.8 °F 93% 30.40 in 5.0 mi Calm Calm - N/A   Overcast
4:53 AM 35.1 °F - 34.0 °F 96% 30.41 in 5.0 mi Calm Calm - N/A   Overcast
5:08 AM 33.8 °F - 33.8 °F 100% 30.39 in 1.8 mi Calm Calm - N/A   Overcast
5:38 AM 35.6 °F - 35.6 °F 100% 30.38 in 0.8 mi Calm Calm - N/A   Mist
5:48 AM 35.6 °F - 35.6 °F 100% 30.38 in 1.8 mi Calm Calm - N/A   Overcast
5:53 AM 35.1 °F - 35.1 °F 100% 30.39 in 2.0 mi Calm Calm - N/A   Overcast
6:12 AM 35.6 °F - 35.6 °F 100% 30.37 in 1.8 mi Calm Calm - N/A   Overcast
6:20 AM 35.6 °F - 35.6 °F 100% 30.38 in 2.0 mi Calm Calm - N/A   Overcast
6:29 AM 35.6 °F - 35.6 °F 100% 30.37 in 1.0 mi Calm Calm - N/A   Overcast
6:36 AM 33.8 °F - 33.8 °F 100% 30.37 in 0.5 mi Calm Calm - N/A Fog Fog
6:53 AM 34.0 °F - 34.0 °F 100% 30.39 in 0.5 mi Calm Calm - N/A Fog Fog
7:53 AM 35.1 °F - 35.1 °F 100% 30.37 in 0.5 mi Calm Calm - N/A Fog Fog
8:53 AM 35.1 °F - 35.1 °F 100% 30.38 in 0.2 mi Calm Calm - N/A Fog Fog
9:53 AM 35.1 °F - 35.1 °F 100% 30.39 in 0.2 mi Calm Calm - N/A Fog Fog
10:53 AM 35.1 °F - 35.1 °F 100% 30.39 in 0.2 mi Calm Calm - N/A Fog Fog
11:51 AM 35.6 °F - 35.6 °F 100% 30.35 in 1.0 mi Calm Calm - N/A   Overcast
11:53 AM 36.0 °F - 36.0 °F 100% 30.36 in 0.8 mi Calm Calm - N/A   Overcast
12:53 PM 37.0 °F - 36.0 °F 96% 30.34 in 3.0 mi Calm Calm - N/A   Overcast
1:07 PM 37.4 °F - 37.4 °F 100% 30.32 in 2.5 mi Calm Calm - N/A   Scattered Clouds
1:20 PM 37.4 °F - 37.4 °F 100% 30.31 in 3.0 mi Calm Calm - N/A   Partly Cloudy
1:53 PM 41.0 °F - 37.0 °F 86% 30.32 in 4.0 mi Calm Calm - N/A   Clear
2:53 PM 43.0 °F - 37.9 °F 82% 30.30 in 4.0 mi Calm Calm - N/A   Haze
3:53 PM 42.1 °F - 37.0 °F 82% 30.29 in 4.0 mi Calm Calm - N/A   Haze
4:53 PM 39.0 °F - 37.0 °F 93% 30.28 in 4.0 mi Calm Calm - N/A   Clear
5:53 PM 37.9 °F - 37.0 °F 97% 30.27 in 4.0 mi Calm Calm - N/A   Clear
6:53 PM 37.0 °F - 36.0 °F 96% 30.27 in 3.0 mi Calm Calm - N/A   Clear
7:53 PM 36.0 °F - 35.1 °F 97% 30.26 in 3.0 mi Calm Calm - N/A   Clear
8:07 PM 35.6 °F - 35.6 °F 100% 30.24 in 2.5 mi Calm Calm - N/A   Clear
8:17 PM 35.6 °F - 35.6 °F 100% 30.24 in 3.0 mi Calm Calm - N/A   Clear
8:31 PM 35.6 °F - 35.6 °F 100% 30.24 in 2.5 mi Calm Calm - N/A   Clear
8:53 PM 35.1 °F - 34.0 °F 96% 30.26 in 2.5 mi Calm Calm - N/A   Clear
9:01 PM 33.8 °F - 33.8 °F 100% 30.24 in 3.0 mi Calm Calm - N/A   Clear
9:17 PM 35.6 °F - 33.8 °F 93% 30.23 in 2.5 mi Calm Calm - N/A   Clear
9:30 PM 35.6 °F 32.8 °F 33.8 °F 93% 30.23 in 3.0 mi SE 3.5 mph - N/A   Clear
9:53 PM 35.1 °F - 34.0 °F 96% 30.25 in 3.0 mi Calm Calm - N/A   Clear
10:34 PM 33.8 °F 30.8 °F 33.8 °F 100% 30.23 in 2.5 mi East 3.5 mph - N/A   Clear
10:53 PM 33.1 °F 30.0 °F 33.1 °F 100% 30.25 in 2.5 mi East 3.5 mph - N/A   Clear
11:39 PM 33.8 °F 29.6 °F 33.8 °F 100% 30.22 in 3.0 mi ESE 4.6 mph - N/A   Clear
11:53 PM 33.1 °F - 33.1 °F 100% 30.23 in 2.5 mi Calm Calm - N/A   Clear